[[{"header":{"parameterUnit":"m.s-1","parameterCategory":1,"la1":30.2991,"la2":30.254,"lo1":-89.0895,"lo2":-89.0444,"dy":0.0017,"dx":0.0017,"nx":28,"ny":28,"refTime":"2025-11-05T03:00:00:Z","depth":0,"parameterNumber":2,"parameterNumberName":"U-component_of_WINDS"},"data":[0,0,0,0,0,0,0,0,0,0,0,0,0,0,0,0,0,0,0,0,0,0,0,0,0,0,0,0,0,0,0,0,0,0,0,0,0,0,0,0,0,0,0,0,0,0,0,0,0,0,0,0,0,0,0,0,0,0,-1.6569,-1.6569,0,-1.6589,-1.6589,-1.659,-1.6512,-1.651,-1.6507,-1.6505,-1.6524,-1.6526,-1.6529,0,0,0,0,0,0,0,0,0,0,0,0,0,-1.6462,-1.6464,-1.6569,-1.6569,-1.657,-1.6589,-1.6589,-1.659,-1.6512,-1.6509,-1.6507,-1.6504,-1.6523,-1.6526,-1.6529,0,0,0,0,0,0,0,0,0,0,0,0,0,-1.6498,-1.6465,-1.6569,-1.6533,-1.653,-1.6589,-1.6589,-1.659,-1.6513,-1.6509,-1.6506,-1.6503,-1.6522,-1.6526,-1.653,-1.6623,0,0,-1.6542,-1.6543,0,0,0,0,0,0,0,0,-1.6496,-1.6502,-1.6538,-1.6536,-1.6533,-1.6545,-1.6558,-1.6601,-1.6514,-1.652,-1.6505,-1.6501,-1.6533,-1.6536,-1.6547,-1.6624,-1.6625,-1.6542,-1.6544,-1.6546,-1.6547,0,0,0,0,0,0,0,-1.6494,-1.6501,-1.6577,-1.6539,-1.6536,-1.6516,-1.6517,-1.6566,-1.6545,-1.6519,-1.6513,-1.6517,-1.6531,-1.6544,-1.6547,-1.6625,-1.6542,-1.6545,-1.6548,-1.6549,-1.6779,-1.6783,0,0,0,0,0,0,-1.6496,-1.6499,-1.6576,-1.6578,-1.6506,-1.6521,-1.6522,-1.6544,-1.6545,-1.6542,-1.652,-1.6513,-1.6539,-1.6543,-1.6548,-1.6657,-1.6546,-1.655,-1.6552,-1.6775,-1.678,-1.6784,0,0,0,0,0,0,-1.6494,-1.6504,-1.6575,-1.6537,-1.6544,-1.6526,-1.6552,-1.6546,-1.6559,-1.6545,-1.6541,-1.6537,-1.6536,-1.6542,-1.6605,-1.6657,-1.6552,-1.6555,-1.6771,-1.6777,-1.6782,-1.6877,0,0,0,0,0,0,-1.6491,-1.6503,-1.6539,-1.6538,-1.6547,-1.6634,-1.6555,-1.6549,-1.6566,-1.6558,-1.656,-1.6557,-1.6534,-1.66,-1.6609,-1.666,-1.6558,-1.6766,-1.6773,-1.678,-1.6869,-1.6885,-1.6899,0,0,0,0,0,-1.6488,-1.6565,-1.6541,-1.6551,-1.6591,-1.6637,-1.6641,-1.6614,-1.6571,-1.6606,-1.6597,-1.6557,-1.665,-1.6607,-1.6617,-1.667,-1.6763,-1.6771,-1.678,-1.6863,-1.6882,-1.6899,0,0,0,0,0,0,-1.6572,-1.6564,-1.6538,-1.6617,-1.6628,-1.6623,-1.6667,-1.6635,-1.6658,-1.6649,-1.6613,-1.6614,-1.6684,-1.6683,-1.6635,-1.676,-1.6699,-1.6709,-1.6759,-1.6777,-1.6792,-1.679,-1.6562,0,0,0,0,0,-1.6599,-1.6638,-1.6628,-1.6699,-1.6706,-1.6686,-1.6705,-1.6683,-1.6692,-1.6696,-1.6692,-1.6702,-1.6734,-1.6755,-1.6783,-1.6869,-1.6868,-1.691,-1.6925,-1.6937,-1.6947,-1.6993,-1.7011,-1.6811,-1.6811,-1.6811,0,0,-1.6657,-1.6658,-1.6684,-1.6716,-1.6722,-1.6762,-1.6691,-1.6735,-1.6765,-1.6703,-1.6762,-1.676,-1.6769,-1.6844,-1.6876,-1.6845,-1.7002,-1.6948,-1.6958,-1.6961,-1.7003,-1.7022,-1.7039,-1.6817,-1.6816,-1.6815,0,0,-1.6783,-1.6787,-1.6847,-1.6854,-1.6864,-1.685,-1.6865,-1.6865,-1.6861,-1.6921,-1.6875,-1.6909,-1.6963,-1.6972,-1.6983,-1.7113,-1.7076,-1.7123,-1.72,-1.7245,-1.7261,-1.7275,-1.7321,-1.7338,-1.7132,-1.7133,-1.7133,0,-1.6853,-1.6912,-1.6881,-1.693,-1.6945,-1.6892,-1.6952,-1.696,-1.6979,-1.699,-1.6955,-1.7023,-1.7025,-1.7102,-1.7133,-1.7144,-1.7159,-1.7122,-1.7261,-1.7275,-1.7287,-1.7331,-1.7348,-1.7138,-1.7138,-1.7137,-1.7136,0,-1.6998,-1.7039,-1.7086,-1.7107,-1.7127,-1.7181,-1.7158,-1.7182,-1.7158,-1.7148,-1.7209,-1.721,-1.7238,-1.7254,-1.723,-1.7327,-1.7307,-1.7267,-1.7205,-1.7312,-1.7353,-1.7369,-1.7146,-1.7144,-1.7143,-1.7141,0,0,-1.7177,-1.718,-1.7198,-1.7207,-1.7214,-1.7245,-1.7296,-1.7324,-1.7346,-1.736,-1.7402,-1.745,-1.7413,-1.7426,-1.7403,-1.7442,-1.7545,-1.7397,-1.7397,-1.7425,-1.7652,-1.7682,-1.7702,-1.7521,-1.7524,-1.7526,-1.7651,0,-1.7301,-1.739,-1.7363,-1.7452,-1.749,-1.744,-1.7485,-1.7494,-1.7486,-1.7516,-1.7506,-1.7541,-1.7489,-1.7497,-1.7534,-1.7525,-1.759,-1.7515,-1.7559,-1.7561,-1.7559,-1.7723,-1.7756,-1.7874,-1.7667,-1.7669,-1.7671,0,-1.7457,-1.7479,-1.7572,-1.7573,-1.7588,-1.7629,-1.7652,-1.7682,-1.7691,-1.7682,-1.7698,-1.7666,-1.7716,-1.7653,-1.7721,-1.7671,-1.7687,-1.7686,-1.769,-1.7693,-1.7623,-1.7732,-1.791,-1.7928,-1.7696,-1.7694,-1.7692,0,-1.7579,-1.7631,-1.7694,-1.7703,-1.7706,-1.7736,-1.7738,-1.7744,-1.7762,-1.7782,-1.7794,-1.7819,-1.7833,-1.7853,-1.783,-1.7786,-1.7902,-1.7836,-1.7895,-1.7896,-1.7922,-1.7921,-1.8107,-1.7932,-1.7932,-1.7932,-1.7931,0,-1.772,-1.7779,-1.7749,-1.7788,-1.7852,-1.7821,-1.7886,-1.7882,-1.7888,-1.7924,-1.7882,-1.7917,-1.7884,-1.7915,-1.7897,-1.7956,-1.7963,-1.7957,-1.7951,-1.7961,-1.7962,-1.7972,-1.7963,-1.7936,-1.7935,-1.7935,-1.7934,0,-1.7868,-1.785,-1.7915,-1.7913,-1.7913,-1.7961,-1.7959,-1.7994,-1.7983,-1.803,-1.8039,-1.8021,-1.8056,-1.8035,-1.807,-1.8058,-1.8136,-1.8118,-1.8133,-1.8129,-1.8189,-1.8184,-1.8388,-1.8413,-1.8222,-1.8224,-1.8225,0,-1.7959,-1.8004,-1.8007,-1.8028,-1.8034,-1.807,-1.8088,-1.806,-1.8081,-1.8095,-1.8128,-1.816,-1.8184,-1.8243,-1.8233,-1.826,-1.8243,-1.8313,-1.8247,-1.8255,-1.8245,-1.8243,-1.8247,-1.8326,-1.8328,-1.833,-1.8332,0,-1.8124,-1.8113,-1.8142,-1.8169,-1.8192,-1.8211,-1.8227,-1.8247,-1.8218,-1.8244,-1.828,-1.8299,-1.8335,-1.8368,-1.8391,-1.8392,-1.8358,-1.8353,-1.8368,-1.8378,-1.8385,-1.8383,-1.817,-1.8348,-1.8346,-1.8345,-1.8344,-1.8344,-1.8246,-1.8283,-1.8292,-1.8325,-1.8334,-1.835,-1.8383,-1.8376,-1.8406,-1.8435,-1.8415,-1.8458,-1.8466,-1.8493,-1.8499,-1.8532,-1.8503,-1.8525,-1.8531,-1.8537,-1.8546,-1.838,-1.8536,-1.8535,-1.8535,-1.8534,-1.8534,0,-1.8409,-1.8412,-1.8443,-1.8467,-1.8493,-1.8459,-1.8474,-1.8499,-1.8537,-1.8548,-1.8573,-1.8614,-1.8645,-1.8638,-1.8665,-1.8693,-1.8678,-1.8701,-1.8699,-1.87,-1.8569,-1.8553,-1.8713,-1.8713,-1.8713,-1.8713,-1.8713,-1.8713,-1.8496,-1.8558,-1.8548,-1.8613,-1.8615,-1.8658,-1.867,-1.8684,-1.8692,-1.8741,-1.8766,-1.8762,-1.8765,-1.8792,-1.8819,-1.8816,-1.8828,-1.8858,-1.8849,-1.8727,-1.8709,-1.8692,-1.8678,-1.8861,-1.8861,-1.8978,-1.8979,-1.898]},{"header":{"parameterUnit":"m.s-1","parameterCategory":1,"la1":30.2991,"la2":30.254,"lo1":-89.0895,"lo2":-89.0444,"dy":0.0017,"dx":0.0017,"nx":28,"ny":28,"refTime":"2025-11-05T03:00:00:Z","depth":0,"parameterNumber":3,"parameterNumberName":"V-component_of_WINDS"},"data":[0,0,0,0,0,0,0,0,0,0,0,0,0,0,0,0,0,0,0,0,0,0,0,0,0,0,0,0,0,0,0,0,0,0,0,0,0,0,0,0,0,0,0,0,0,0,0,0,0,0,0,0,0,0,0,0,0,0,-1.4201,-1.4201,0,-1.4175,-1.4175,-1.4174,-1.4172,-1.4172,-1.4172,-1.4172,-1.4144,-1.4143,-1.4142,0,0,0,0,0,0,0,0,0,0,0,0,0,-1.4244,-1.4243,-1.4201,-1.42,-1.42,-1.4175,-1.4175,-1.4174,-1.4172,-1.4172,-1.4172,-1.4173,-1.4145,-1.4143,-1.4142,0,0,0,0,0,0,0,0,0,0,0,0,0,-1.4222,-1.4243,-1.4201,-1.4196,-1.4195,-1.4175,-1.4175,-1.4174,-1.4172,-1.4172,-1.4172,-1.4173,-1.4145,-1.4144,-1.4142,-1.4125,0,0,-1.4137,-1.4137,0,0,0,0,0,0,0,0,-1.4224,-1.4221,-1.4197,-1.4196,-1.4195,-1.4177,-1.418,-1.4158,-1.4171,-1.418,-1.4172,-1.4173,-1.4155,-1.4152,-1.4147,-1.4124,-1.4122,-1.4137,-1.4136,-1.4136,-1.4135,0,0,0,0,0,0,0,-1.4225,-1.4222,-1.4191,-1.4196,-1.4195,-1.4194,-1.4191,-1.4175,-1.4166,-1.418,-1.4179,-1.4176,-1.4154,-1.4148,-1.4146,-1.4122,-1.4137,-1.4136,-1.4135,-1.4135,-1.408,-1.408,0,0,0,0,0,0,-1.4228,-1.4223,-1.4191,-1.419,-1.4211,-1.4193,-1.419,-1.4182,-1.4166,-1.4164,-1.4176,-1.4176,-1.415,-1.4148,-1.4145,-1.4122,-1.4136,-1.4134,-1.4134,-1.4081,-1.408,-1.408,0,0,0,0,0,0,-1.4229,-1.4225,-1.4192,-1.4206,-1.4202,-1.4191,-1.4183,-1.4182,-1.4176,-1.4163,-1.4161,-1.4172,-1.4151,-1.4147,-1.4129,-1.4121,-1.4134,-1.4132,-1.4081,-1.4081,-1.408,-1.4076,0,0,0,0,0,0,-1.423,-1.4226,-1.422,-1.4206,-1.4201,-1.4178,-1.4183,-1.4181,-1.4173,-1.4173,-1.4159,-1.4156,-1.4151,-1.4132,-1.4128,-1.4119,-1.4131,-1.4082,-1.4081,-1.408,-1.4077,-1.4075,-1.4074,0,0,0,0,0,-1.4232,-1.422,-1.422,-1.4216,-1.4194,-1.4178,-1.4175,-1.4169,-1.4173,-1.4166,-1.4157,-1.4157,-1.4123,-1.413,-1.4126,-1.4116,-1.4083,-1.4081,-1.408,-1.4078,-1.4076,-1.4074,0,0,0,0,0,0,-1.4233,-1.4218,-1.4218,-1.4202,-1.4191,-1.4177,-1.4169,-1.4168,-1.4155,-1.4156,-1.4148,-1.4145,-1.4127,-1.412,-1.4128,-1.4097,-1.4103,-1.4101,-1.4102,-1.41,-1.4099,-1.41,-1.413,0,0,0,0,0,-1.4232,-1.422,-1.4208,-1.4195,-1.4189,-1.418,-1.4173,-1.4169,-1.4158,-1.4153,-1.4143,-1.4131,-1.4118,-1.4109,-1.4096,-1.4076,-1.4072,-1.4067,-1.4066,-1.4065,-1.4063,-1.4049,-1.4046,-1.4076,-1.4076,-1.4076,0,0,-1.4228,-1.4219,-1.4212,-1.4195,-1.4186,-1.4173,-1.4176,-1.4163,-1.4153,-1.4151,-1.4133,-1.4125,-1.4111,-1.4092,-1.4083,-1.4086,-1.4053,-1.4063,-1.4062,-1.4061,-1.4047,-1.4044,-1.4042,-1.4075,-1.4075,-1.4075,0,0,-1.4215,-1.4208,-1.4195,-1.4186,-1.4173,-1.4166,-1.4163,-1.4149,-1.4144,-1.4126,-1.4123,-1.411,-1.4088,-1.4077,-1.4069,-1.4049,-1.4047,-1.4045,-1.4036,-1.4023,-1.4021,-1.4019,-1.4009,-1.4006,-1.4043,-1.4043,-1.4043,0,-1.4212,-1.4194,-1.4189,-1.4175,-1.4166,-1.4163,-1.4149,-1.414,-1.4123,-1.4116,-1.412,-1.4089,-1.408,-1.4056,-1.4051,-1.4046,-1.404,-1.4046,-1.4022,-1.402,-1.4017,-1.4008,-1.4005,-1.4043,-1.4043,-1.4043,-1.4043,0,-1.419,-1.4177,-1.4168,-1.4151,-1.4142,-1.4128,-1.4119,-1.4109,-1.4106,-1.4098,-1.4079,-1.4067,-1.405,-1.4045,-1.4042,-1.402,-1.4022,-1.4024,-1.4029,-1.4014,-1.4005,-1.4002,-1.4042,-1.4042,-1.4042,-1.4042,0,0,-1.4178,-1.4157,-1.4154,-1.4145,-1.4129,-1.4118,-1.4103,-1.4087,-1.4078,-1.4066,-1.4051,-1.4031,-1.4031,-1.4022,-1.4017,-1.4006,-1.3988,-1.4008,-1.4008,-1.4003,-1.396,-1.3958,-1.3954,-1.3987,-1.3986,-1.3985,-1.396,0,-1.4162,-1.4136,-1.4129,-1.4107,-1.4093,-1.4089,-1.4075,-1.4063,-1.4055,-1.4041,-1.4032,-1.4017,-1.402,-1.4014,-1.4003,-1.3992,-1.3979,-1.3994,-1.3971,-1.397,-1.3973,-1.395,-1.3948,-1.3925,-1.3957,-1.3957,-1.3956,0,-1.4141,-1.4127,-1.4103,-1.4086,-1.408,-1.4068,-1.4051,-1.4039,-1.4024,-1.4018,-1.4006,-1.4002,-1.3984,-1.3991,-1.3965,-1.3975,-1.3965,-1.3958,-1.3957,-1.3954,-1.3962,-1.3944,-1.3918,-1.3913,-1.3951,-1.3952,-1.3952,0,-1.4132,-1.4108,-1.4089,-1.4082,-1.4063,-1.4054,-1.4045,-1.4031,-1.402,-1.4005,-1.3998,-1.3981,-1.3971,-1.3957,-1.3947,-1.3954,-1.3921,-1.3927,-1.3914,-1.3914,-1.3906,-1.3907,-1.3877,-1.3903,-1.3903,-1.3903,-1.3903,0,-1.4114,-1.4099,-1.4085,-1.4073,-1.4055,-1.4047,-1.4029,-1.402,-1.4006,-1.3991,-1.3987,-1.3973,-1.3962,-1.3946,-1.3938,-1.3916,-1.3912,-1.3906,-1.3903,-1.3905,-1.3905,-1.3897,-1.3898,-1.3902,-1.3902,-1.3903,-1.3903,0,-1.4101,-1.4092,-1.4071,-1.4054,-1.4049,-1.4036,-1.402,-1.4008,-1.3999,-1.398,-1.3975,-1.3961,-1.3942,-1.3931,-1.3907,-1.3901,-1.3875,-1.3875,-1.388,-1.3879,-1.3865,-1.3866,-1.3828,-1.3821,-1.3854,-1.3853,-1.3853,0,-1.409,-1.4078,-1.4059,-1.4049,-1.404,-1.4024,-1.4013,-1.4003,-1.3991,-1.3972,-1.3961,-1.3941,-1.3925,-1.3893,-1.388,-1.3861,-1.3858,-1.3846,-1.3855,-1.3856,-1.3855,-1.3855,-1.3853,-1.3844,-1.3844,-1.3844,-1.3844,0,-1.407,-1.4065,-1.405,-1.4032,-1.4019,-1.4004,-1.399,-1.3981,-1.3969,-1.3956,-1.3936,-1.3923,-1.3897,-1.3876,-1.3855,-1.3845,-1.3841,-1.3841,-1.3836,-1.3837,-1.3839,-1.3835,-1.3874,-1.3841,-1.3842,-1.3842,-1.3842,-1.3842,-1.4057,-1.4044,-1.4028,-1.401,-1.3998,-1.3984,-1.3971,-1.396,-1.3943,-1.3921,-1.3916,-1.3894,-1.3876,-1.3847,-1.3836,-1.3817,-1.3819,-1.3814,-1.3812,-1.381,-1.3808,-1.3844,-1.3814,-1.3814,-1.3814,-1.3814,-1.3814,0,-1.4035,-1.4024,-1.4007,-1.3986,-1.3972,-1.397,-1.3953,-1.394,-1.3921,-1.3905,-1.3888,-1.3863,-1.3842,-1.3827,-1.3805,-1.3792,-1.379,-1.3787,-1.3787,-1.3784,-1.3809,-1.3814,-1.3789,-1.3789,-1.3789,-1.3789,-1.3789,-1.3789,-1.4022,-1.4,-1.3993,-1.3964,-1.3953,-1.3931,-1.3921,-1.3907,-1.3894,-1.3866,-1.3849,-1.3839,-1.3822,-1.3798,-1.3778,-1.3774,-1.3765,-1.3761,-1.3756,-1.378,-1.3782,-1.3785,-1.3789,-1.376,-1.376,-1.3733,-1.3733,-1.3732]}]]